<?xml version="1.0" encoding="UTF-8" standalone="no" ?>
<gpx xmlns="http://www.topografix.com/GPX/1/1" xmlns:xsi="http://www.w3.org/2001/XMLSchema-instance" xsi:schemaLocation="http://www.topografix.com/GPX/1/1 http://www.topografix.com/GPX/1/1/gpx.xsd" version="1.1" creator="VisuGPX - https://www.visugpx.com">
  <metadata>
    <name>La besbre 35km</name>
    <desc><![CDATA[rando au depart du mayet de montagne en boucle dans la 
montagne bourbonnaise.]]></desc>
  </metadata>
  <trk>
    <name><![CDATA[track]]></name>
    <trkseg>
      <trkpt lat="46.06989" lon="3.66571">
        <ele>536</ele>
        <time>2008-10-05T07:15:08Z</time>
      </trkpt>
      <trkpt lat="46.07017" lon="3.6659">
        <ele>536</ele>
        <time>2008-10-05T07:15:08Z</time>
      </trkpt>
      <trkpt lat="46.07026" lon="3.66669">
        <ele>536</ele>
        <time>2008-10-05T07:15:08Z</time>
      </trkpt>
      <trkpt lat="46.06953" lon="3.66748">
        <ele>540</ele>
        <time>2008-10-05T07:15:08Z</time>
      </trkpt>
      <trkpt lat="46.07045" lon="3.66857">
        <ele>544</ele>
        <time>2008-10-05T07:15:08Z</time>
      </trkpt>
      <trkpt lat="46.07076" lon="3.66949">
        <ele>541</ele>
        <time>2008-10-05T07:15:08Z</time>
      </trkpt>
      <trkpt lat="46.07001" lon="3.67008">
        <ele>547</ele>
        <time>2008-10-05T07:15:08Z</time>
      </trkpt>
      <trkpt lat="46.06843" lon="3.6705">
        <ele>565</ele>
        <time>2008-10-05T07:15:08Z</time>
      </trkpt>
      <trkpt lat="46.06748" lon="3.67041">
        <ele>569</ele>
        <time>2008-10-05T07:15:08Z</time>
      </trkpt>
      <trkpt lat="46.06685" lon="3.67097">
        <ele>570</ele>
        <time>2008-10-05T07:15:08Z</time>
      </trkpt>
      <trkpt lat="46.06607" lon="3.67178">
        <ele>576</ele>
        <time>2008-10-05T07:15:08Z</time>
      </trkpt>
      <trkpt lat="46.06542" lon="3.67229">
        <ele>582</ele>
        <time>2008-10-05T07:15:08Z</time>
      </trkpt>
      <trkpt lat="46.06522" lon="3.6725">
        <ele>584</ele>
        <time>2008-10-05T07:15:08Z</time>
      </trkpt>
      <trkpt lat="46.06462" lon="3.67379">
        <ele>590</ele>
        <time>2008-10-05T07:15:08Z</time>
      </trkpt>
      <trkpt lat="46.06415" lon="3.67512">
        <ele>585</ele>
        <time>2008-10-05T07:15:08Z</time>
      </trkpt>
      <trkpt lat="46.06381" lon="3.67581">
        <ele>582</ele>
        <time>2008-10-05T07:15:08Z</time>
      </trkpt>
      <trkpt lat="46.06295" lon="3.67705">
        <ele>577</ele>
        <time>2008-10-05T07:15:08Z</time>
      </trkpt>
      <trkpt lat="46.06269" lon="3.67738">
        <ele>581</ele>
        <time>2008-10-05T07:15:08Z</time>
      </trkpt>
      <trkpt lat="46.06237" lon="3.6778">
        <ele>586</ele>
        <time>2008-10-05T07:15:08Z</time>
      </trkpt>
      <trkpt lat="46.06214" lon="3.67818">
        <ele>587</ele>
        <time>2008-10-05T07:15:08Z</time>
      </trkpt>
      <trkpt lat="46.06186" lon="3.67843">
        <ele>588</ele>
        <time>2008-10-05T07:15:08Z</time>
      </trkpt>
      <trkpt lat="46.06168" lon="3.67862">
        <ele>587</ele>
        <time>2008-10-05T07:15:08Z</time>
      </trkpt>
      <trkpt lat="46.06155" lon="3.67868">
        <ele>588</ele>
        <time>2008-10-05T07:15:08Z</time>
      </trkpt>
      <trkpt lat="46.06136" lon="3.67887">
        <ele>586</ele>
        <time>2008-10-05T07:15:08Z</time>
      </trkpt>
      <trkpt lat="46.06117" lon="3.679">
        <ele>585</ele>
        <time>2008-10-05T07:15:08Z</time>
      </trkpt>
      <trkpt lat="46.06075" lon="3.67953">
        <ele>585</ele>
        <time>2008-10-05T07:15:08Z</time>
      </trkpt>
      <trkpt lat="46.06043" lon="3.68014">
        <ele>582</ele>
        <time>2008-10-05T07:15:08Z</time>
      </trkpt>
      <trkpt lat="46.05982" lon="3.68038">
        <ele>577</ele>
        <time>2008-10-05T07:15:08Z</time>
      </trkpt>
      <trkpt lat="46.05791" lon="3.68166">
        <ele>567</ele>
        <time>2008-10-05T07:15:08Z</time>
      </trkpt>
      <trkpt lat="46.05643" lon="3.68231">
        <ele>567</ele>
        <time>2008-10-05T07:15:08Z</time>
      </trkpt>
      <trkpt lat="46.05547" lon="3.68299">
        <ele>570</ele>
        <time>2008-10-05T07:15:08Z</time>
      </trkpt>
      <trkpt lat="46.05409" lon="3.68218">
        <ele>571</ele>
        <time>2008-10-05T07:15:08Z</time>
      </trkpt>
      <trkpt lat="46.05113" lon="3.68158">
        <ele>581</ele>
        <time>2008-10-05T07:15:08Z</time>
      </trkpt>
      <trkpt lat="46.05085" lon="3.68265">
        <ele>582</ele>
        <time>2008-10-05T07:15:08Z</time>
      </trkpt>
      <trkpt lat="46.0513" lon="3.68381">
        <ele>586</ele>
        <time>2008-10-05T07:15:08Z</time>
      </trkpt>
      <trkpt lat="46.05153" lon="3.68402">
        <ele>587</ele>
        <time>2008-10-05T07:15:08Z</time>
      </trkpt>
      <trkpt lat="46.05166" lon="3.68377">
        <ele>585</ele>
        <time>2008-10-05T07:15:08Z</time>
      </trkpt>
      <trkpt lat="46.05207" lon="3.68422">
        <ele>586</ele>
        <time>2008-10-05T07:15:08Z</time>
      </trkpt>
      <trkpt lat="46.05312" lon="3.68591">
        <ele>591</ele>
        <time>2008-10-05T07:15:08Z</time>
      </trkpt>
      <trkpt lat="46.05385" lon="3.68729">
        <ele>590</ele>
        <time>2008-10-05T07:15:08Z</time>
      </trkpt>
      <trkpt lat="46.05454" lon="3.68836">
        <ele>584</ele>
        <time>2008-10-05T07:15:08Z</time>
      </trkpt>
      <trkpt lat="46.0549" lon="3.68879">
        <ele>582</ele>
        <time>2008-10-05T07:15:08Z</time>
      </trkpt>
      <trkpt lat="46.05454" lon="3.68943">
        <ele>584</ele>
        <time>2008-10-05T07:15:08Z</time>
      </trkpt>
      <trkpt lat="46.05411" lon="3.68961">
        <ele>583</ele>
        <time>2008-10-05T07:15:08Z</time>
      </trkpt>
      <trkpt lat="46.05275" lon="3.68981">
        <ele>584</ele>
        <time>2008-10-05T07:15:08Z</time>
      </trkpt>
      <trkpt lat="46.05264" lon="3.69029">
        <ele>592</ele>
        <time>2008-10-05T07:15:08Z</time>
      </trkpt>
      <trkpt lat="46.05355" lon="3.69108">
        <ele>598</ele>
        <time>2008-10-05T07:15:08Z</time>
      </trkpt>
      <trkpt lat="46.05408" lon="3.69178">
        <ele>589</ele>
        <time>2008-10-05T07:15:08Z</time>
      </trkpt>
      <trkpt lat="46.05269" lon="3.69336">
        <ele>600</ele>
        <time>2008-10-05T07:15:08Z</time>
      </trkpt>
      <trkpt lat="46.0528" lon="3.69336">
        <ele>599</ele>
        <time>2008-10-05T07:15:08Z</time>
      </trkpt>
      <trkpt lat="46.05364" lon="3.69327">
        <ele>592</ele>
        <time>2008-10-05T07:15:08Z</time>
      </trkpt>
      <trkpt lat="46.05407" lon="3.69336">
        <ele>588</ele>
        <time>2008-10-05T07:15:08Z</time>
      </trkpt>
      <trkpt lat="46.05649" lon="3.6945">
        <ele>564</ele>
        <time>2008-10-05T07:15:08Z</time>
      </trkpt>
      <trkpt lat="46.05694" lon="3.69467">
        <ele>561</ele>
        <time>2008-10-05T07:15:08Z</time>
      </trkpt>
      <trkpt lat="46.05731" lon="3.6948">
        <ele>558</ele>
        <time>2008-10-05T07:15:08Z</time>
      </trkpt>
      <trkpt lat="46.05894" lon="3.6949">
        <ele>541</ele>
        <time>2008-10-05T07:15:08Z</time>
      </trkpt>
      <trkpt lat="46.0593" lon="3.69505">
        <ele>539</ele>
        <time>2008-10-05T07:15:08Z</time>
      </trkpt>
      <trkpt lat="46.05945" lon="3.69512">
        <ele>540</ele>
        <time>2008-10-05T07:15:08Z</time>
      </trkpt>
      <trkpt lat="46.05969" lon="3.69527">
        <ele>540</ele>
        <time>2008-10-05T07:15:08Z</time>
      </trkpt>
      <trkpt lat="46.06007" lon="3.69585">
        <ele>540</ele>
        <time>2008-10-05T07:15:08Z</time>
      </trkpt>
      <trkpt lat="46.0602" lon="3.69621">
        <ele>540</ele>
        <time>2008-10-05T07:15:08Z</time>
      </trkpt>
      <trkpt lat="46.06049" lon="3.69717">
        <ele>548</ele>
        <time>2008-10-05T07:15:08Z</time>
      </trkpt>
      <trkpt lat="46.06042" lon="3.69798">
        <ele>553</ele>
        <time>2008-10-05T07:15:08Z</time>
      </trkpt>
      <trkpt lat="46.06059" lon="3.69879">
        <ele>557</ele>
        <time>2008-10-05T07:15:08Z</time>
      </trkpt>
      <trkpt lat="46.06062" lon="3.69986">
        <ele>543</ele>
        <time>2008-10-05T07:15:08Z</time>
      </trkpt>
      <trkpt lat="46.06102" lon="3.69993">
        <ele>537</ele>
        <time>2008-10-05T07:15:08Z</time>
      </trkpt>
      <trkpt lat="46.0615" lon="3.69933">
        <ele>554</ele>
        <time>2008-10-05T07:15:08Z</time>
      </trkpt>
      <trkpt lat="46.06188" lon="3.69953">
        <ele>550</ele>
        <time>2008-10-05T07:15:08Z</time>
      </trkpt>
      <trkpt lat="46.06115" lon="3.70019">
        <ele>527</ele>
        <time>2008-10-05T07:15:08Z</time>
      </trkpt>
      <trkpt lat="46.06095" lon="3.7007">
        <ele>506</ele>
        <time>2008-10-05T07:15:08Z</time>
      </trkpt>
      <trkpt lat="46.05999" lon="3.70178">
        <ele>490</ele>
        <time>2008-10-05T07:15:08Z</time>
      </trkpt>
      <trkpt lat="46.0603" lon="3.70198">
        <ele>485</ele>
        <time>2008-10-05T07:15:08Z</time>
      </trkpt>
      <trkpt lat="46.05954" lon="3.7025">
        <ele>487</ele>
        <time>2008-10-05T07:15:08Z</time>
      </trkpt>
      <trkpt lat="46.05791" lon="3.70413">
        <ele>489</ele>
        <time>2008-10-05T07:15:08Z</time>
      </trkpt>
      <trkpt lat="46.05733" lon="3.70435">
        <ele>491</ele>
        <time>2008-10-05T07:15:08Z</time>
      </trkpt>
      <trkpt lat="46.05514" lon="3.70623">
        <ele>488</ele>
        <time>2008-10-05T07:15:08Z</time>
      </trkpt>
      <trkpt lat="46.0543" lon="3.70687">
        <ele>489</ele>
        <time>2008-10-05T07:15:08Z</time>
      </trkpt>
      <trkpt lat="46.05351" lon="3.70714">
        <ele>491</ele>
        <time>2008-10-05T07:15:08Z</time>
      </trkpt>
      <trkpt lat="46.05302" lon="3.7071">
        <ele>495</ele>
        <time>2008-10-05T07:15:08Z</time>
      </trkpt>
      <trkpt lat="46.05213" lon="3.70707">
        <ele>499</ele>
        <time>2008-10-05T07:15:08Z</time>
      </trkpt>
      <trkpt lat="46.05173" lon="3.70765">
        <ele>496</ele>
        <time>2008-10-05T07:15:08Z</time>
      </trkpt>
      <trkpt lat="46.05076" lon="3.70857">
        <ele>501</ele>
        <time>2008-10-05T07:15:08Z</time>
      </trkpt>
      <trkpt lat="46.0498" lon="3.70913">
        <ele>506</ele>
        <time>2008-10-05T07:15:08Z</time>
      </trkpt>
      <trkpt lat="46.04889" lon="3.71003">
        <ele>508</ele>
        <time>2008-10-05T07:15:08Z</time>
      </trkpt>
      <trkpt lat="46.04852" lon="3.71036">
        <ele>510</ele>
        <time>2008-10-05T07:15:08Z</time>
      </trkpt>
      <trkpt lat="46.04845" lon="3.71083">
        <ele>508</ele>
        <time>2008-10-05T07:15:08Z</time>
      </trkpt>
      <trkpt lat="46.0475" lon="3.71186">
        <ele>510</ele>
        <time>2008-10-05T07:15:08Z</time>
      </trkpt>
      <trkpt lat="46.04726" lon="3.71233">
        <ele>507</ele>
        <time>2008-10-05T07:15:08Z</time>
      </trkpt>
      <trkpt lat="46.04697" lon="3.71262">
        <ele>508</ele>
        <time>2008-10-05T07:15:08Z</time>
      </trkpt>
      <trkpt lat="46.04656" lon="3.71254">
        <ele>517</ele>
        <time>2008-10-05T07:15:08Z</time>
      </trkpt>
      <trkpt lat="46.04663" lon="3.71198">
        <ele>523</ele>
        <time>2008-10-05T07:15:08Z</time>
      </trkpt>
      <trkpt lat="46.04645" lon="3.71173">
        <ele>531</ele>
        <time>2008-10-05T07:15:08Z</time>
      </trkpt>
      <trkpt lat="46.04613" lon="3.71166">
        <ele>539</ele>
        <time>2008-10-05T07:15:08Z</time>
      </trkpt>
      <trkpt lat="46.04591" lon="3.71186">
        <ele>540</ele>
        <time>2008-10-05T07:15:08Z</time>
      </trkpt>
      <trkpt lat="46.04576" lon="3.71198">
        <ele>541</ele>
        <time>2008-10-05T07:15:08Z</time>
      </trkpt>
      <trkpt lat="46.04516" lon="3.71228">
        <ele>551</ele>
        <time>2008-10-05T07:15:08Z</time>
      </trkpt>
      <trkpt lat="46.04456" lon="3.71243">
        <ele>562</ele>
        <time>2008-10-05T07:15:08Z</time>
      </trkpt>
      <trkpt lat="46.04439" lon="3.71256">
        <ele>563</ele>
        <time>2008-10-05T07:15:08Z</time>
      </trkpt>
      <trkpt lat="46.04383" lon="3.71282">
        <ele>567</ele>
        <time>2008-10-05T07:15:08Z</time>
      </trkpt>
      <trkpt lat="46.04325" lon="3.71276">
        <ele>570</ele>
        <time>2008-10-05T07:15:08Z</time>
      </trkpt>
      <trkpt lat="46.04278" lon="3.71344">
        <ele>567</ele>
        <time>2008-10-05T07:15:08Z</time>
      </trkpt>
      <trkpt lat="46.04194" lon="3.71501">
        <ele>554</ele>
        <time>2008-10-05T07:15:08Z</time>
      </trkpt>
      <trkpt lat="46.04158" lon="3.71584">
        <ele>552</ele>
        <time>2008-10-05T07:15:08Z</time>
      </trkpt>
      <trkpt lat="46.04113" lon="3.71623">
        <ele>558</ele>
        <time>2008-10-05T07:15:08Z</time>
      </trkpt>
      <trkpt lat="46.04079" lon="3.71642">
        <ele>564</ele>
        <time>2008-10-05T07:15:08Z</time>
      </trkpt>
      <trkpt lat="46.04071" lon="3.71669">
        <ele>567</ele>
        <time>2008-10-05T07:15:08Z</time>
      </trkpt>
      <trkpt lat="46.04056" lon="3.71698">
        <ele>573</ele>
        <time>2008-10-05T07:15:08Z</time>
      </trkpt>
      <trkpt lat="46.0402" lon="3.71746">
        <ele>580</ele>
        <time>2008-10-05T07:15:08Z</time>
      </trkpt>
      <trkpt lat="46.03986" lon="3.71801">
        <ele>586</ele>
        <time>2008-10-05T07:15:08Z</time>
      </trkpt>
      <trkpt lat="46.03986" lon="3.71801">
        <ele>586</ele>
        <time>2008-10-05T07:15:08Z</time>
      </trkpt>
      <trkpt lat="46.03947" lon="3.71883">
        <ele>590</ele>
        <time>2008-10-05T07:15:08Z</time>
      </trkpt>
      <trkpt lat="46.03915" lon="3.71917">
        <ele>589</ele>
        <time>2008-10-05T07:15:08Z</time>
      </trkpt>
      <trkpt lat="46.03847" lon="3.71992">
        <ele>580</ele>
        <time>2008-10-05T07:15:08Z</time>
      </trkpt>
      <trkpt lat="46.03819" lon="3.71999">
        <ele>582</ele>
        <time>2008-10-05T07:15:08Z</time>
      </trkpt>
      <trkpt lat="46.03784" lon="3.72003">
        <ele>583</ele>
        <time>2008-10-05T07:15:08Z</time>
      </trkpt>
      <trkpt lat="46.03619" lon="3.72018">
        <ele>584</ele>
        <time>2008-10-05T07:15:08Z</time>
      </trkpt>
      <trkpt lat="46.03553" lon="3.72048">
        <ele>584</ele>
        <time>2008-10-05T07:15:08Z</time>
      </trkpt>
      <trkpt lat="46.03457" lon="3.72159">
        <ele>588</ele>
        <time>2008-10-05T07:15:08Z</time>
      </trkpt>
      <trkpt lat="46.03426" lon="3.72212">
        <ele>587</ele>
        <time>2008-10-05T07:15:08Z</time>
      </trkpt>
      <trkpt lat="46.03405" lon="3.72266">
        <ele>585</ele>
        <time>2008-10-05T07:15:08Z</time>
      </trkpt>
      <trkpt lat="46.03334" lon="3.72364">
        <ele>581</ele>
        <time>2008-10-05T07:15:08Z</time>
      </trkpt>
      <trkpt lat="46.0331" lon="3.72394">
        <ele>579</ele>
        <time>2008-10-05T07:15:08Z</time>
      </trkpt>
      <trkpt lat="46.03262" lon="3.72388">
        <ele>575</ele>
        <time>2008-10-05T07:15:08Z</time>
      </trkpt>
      <trkpt lat="46.03246" lon="3.72423">
        <ele>571</ele>
        <time>2008-10-05T07:15:08Z</time>
      </trkpt>
      <trkpt lat="46.03241" lon="3.72541">
        <ele>561</ele>
        <time>2008-10-05T07:15:08Z</time>
      </trkpt>
      <trkpt lat="46.03234" lon="3.72614">
        <ele>557</ele>
        <time>2008-10-05T07:15:08Z</time>
      </trkpt>
      <trkpt lat="46.03217" lon="3.72655">
        <ele>548</ele>
        <time>2008-10-05T07:15:08Z</time>
      </trkpt>
      <trkpt lat="46.03188" lon="3.72645">
        <ele>545</ele>
        <time>2008-10-05T07:15:08Z</time>
      </trkpt>
      <trkpt lat="46.0318" lon="3.72588">
        <ele>545</ele>
        <time>2008-10-05T07:15:08Z</time>
      </trkpt>
      <trkpt lat="46.03159" lon="3.7262">
        <ele>541</ele>
        <time>2008-10-05T07:15:08Z</time>
      </trkpt>
      <trkpt lat="46.03145" lon="3.72645">
        <ele>536</ele>
        <time>2008-10-05T07:15:08Z</time>
      </trkpt>
      <trkpt lat="46.03143" lon="3.72684">
        <ele>535</ele>
        <time>2008-10-05T07:15:08Z</time>
      </trkpt>
      <trkpt lat="46.03138" lon="3.72726">
        <ele>534</ele>
        <time>2008-10-05T07:15:08Z</time>
      </trkpt>
      <trkpt lat="46.03137" lon="3.72766">
        <ele>536</ele>
        <time>2008-10-05T07:15:08Z</time>
      </trkpt>
      <trkpt lat="46.03108" lon="3.72772">
        <ele>540</ele>
        <time>2008-10-05T07:15:08Z</time>
      </trkpt>
      <trkpt lat="46.03004" lon="3.72777">
        <ele>548</ele>
        <time>2008-10-05T07:15:08Z</time>
      </trkpt>
      <trkpt lat="46.02955" lon="3.7276">
        <ele>545</ele>
        <time>2008-10-05T07:15:08Z</time>
      </trkpt>
      <trkpt lat="46.02954" lon="3.72788">
        <ele>548</ele>
        <time>2008-10-05T07:15:08Z</time>
      </trkpt>
      <trkpt lat="46.02939" lon="3.72829">
        <ele>554</ele>
        <time>2008-10-05T07:15:08Z</time>
      </trkpt>
      <trkpt lat="46.02857" lon="3.72871">
        <ele>563</ele>
        <time>2008-10-05T07:15:08Z</time>
      </trkpt>
      <trkpt lat="46.02819" lon="3.72934">
        <ele>575</ele>
        <time>2008-10-05T07:15:08Z</time>
      </trkpt>
      <trkpt lat="46.02789" lon="3.72967">
        <ele>583</ele>
        <time>2008-10-05T07:15:08Z</time>
      </trkpt>
      <trkpt lat="46.02774" lon="3.72986">
        <ele>585</ele>
        <time>2008-10-05T07:15:08Z</time>
      </trkpt>
      <trkpt lat="46.02726" lon="3.73067">
        <ele>591</ele>
        <time>2008-10-05T07:15:08Z</time>
      </trkpt>
      <trkpt lat="46.02733" lon="3.73052">
        <ele>591</ele>
        <time>2008-10-05T07:15:08Z</time>
      </trkpt>
      <trkpt lat="46.02638" lon="3.73057">
        <ele>601</ele>
        <time>2008-10-05T07:15:08Z</time>
      </trkpt>
      <trkpt lat="46.02574" lon="3.73046">
        <ele>604</ele>
        <time>2008-10-05T07:15:08Z</time>
      </trkpt>
      <trkpt lat="46.02527" lon="3.73003">
        <ele>606</ele>
        <time>2008-10-05T07:15:08Z</time>
      </trkpt>
      <trkpt lat="46.0249" lon="3.72911">
        <ele>608</ele>
        <time>2008-10-05T07:15:08Z</time>
      </trkpt>
      <trkpt lat="46.02462" lon="3.7288">
        <ele>607</ele>
        <time>2008-10-05T07:15:08Z</time>
      </trkpt>
      <trkpt lat="46.02404" lon="3.72846">
        <ele>604</ele>
        <time>2008-10-05T07:15:08Z</time>
      </trkpt>
      <trkpt lat="46.02344" lon="3.72814">
        <ele>606</ele>
        <time>2008-10-05T07:15:08Z</time>
      </trkpt>
      <trkpt lat="46.02312" lon="3.72824">
        <ele>606</ele>
        <time>2008-10-05T07:15:08Z</time>
      </trkpt>
      <trkpt lat="46.02265" lon="3.72862">
        <ele>609</ele>
        <time>2008-10-05T07:15:08Z</time>
      </trkpt>
      <trkpt lat="46.02244" lon="3.72871">
        <ele>610</ele>
        <time>2008-10-05T07:15:08Z</time>
      </trkpt>
      <trkpt lat="46.02215" lon="3.72904">
        <ele>608</ele>
        <time>2008-10-05T07:15:08Z</time>
      </trkpt>
      <trkpt lat="46.02192" lon="3.72917">
        <ele>606</ele>
        <time>2008-10-05T07:15:08Z</time>
      </trkpt>
      <trkpt lat="46.02136" lon="3.72907">
        <ele>604</ele>
        <time>2008-10-05T07:15:08Z</time>
      </trkpt>
      <trkpt lat="46.0207" lon="3.72969">
        <ele>603</ele>
        <time>2008-10-05T07:15:08Z</time>
      </trkpt>
      <trkpt lat="46.02034" lon="3.7305">
        <ele>602</ele>
        <time>2008-10-05T07:15:08Z</time>
      </trkpt>
      <trkpt lat="46.02022" lon="3.73209">
        <ele>604</ele>
        <time>2008-10-05T07:15:08Z</time>
      </trkpt>
      <trkpt lat="46.02009" lon="3.73256">
        <ele>603</ele>
        <time>2008-10-05T07:15:08Z</time>
      </trkpt>
      <trkpt lat="46.01879" lon="3.73295">
        <ele>597</ele>
        <time>2008-10-05T07:15:08Z</time>
      </trkpt>
      <trkpt lat="46.01849" lon="3.73254">
        <ele>599</ele>
        <time>2008-10-05T07:15:08Z</time>
      </trkpt>
      <trkpt lat="46.01846" lon="3.73189">
        <ele>601</ele>
        <time>2008-10-05T07:15:08Z</time>
      </trkpt>
      <trkpt lat="46.01893" lon="3.73038">
        <ele>600</ele>
        <time>2008-10-05T07:15:08Z</time>
      </trkpt>
      <trkpt lat="46.01891" lon="3.73014">
        <ele>599</ele>
        <time>2008-10-05T07:15:08Z</time>
      </trkpt>
      <trkpt lat="46.01836" lon="3.73007">
        <ele>594</ele>
        <time>2008-10-05T07:15:08Z</time>
      </trkpt>
      <trkpt lat="46.01752" lon="3.73046">
        <ele>594</ele>
        <time>2008-10-05T07:15:08Z</time>
      </trkpt>
      <trkpt lat="46.01712" lon="3.73111">
        <ele>593</ele>
        <time>2008-10-05T07:15:08Z</time>
      </trkpt>
      <trkpt lat="46.01651" lon="3.73152">
        <ele>595</ele>
        <time>2008-10-05T07:15:08Z</time>
      </trkpt>
      <trkpt lat="46.01606" lon="3.73157">
        <ele>597</ele>
        <time>2008-10-05T07:15:08Z</time>
      </trkpt>
      <trkpt lat="46.01575" lon="3.7323">
        <ele>596</ele>
        <time>2008-10-05T07:15:08Z</time>
      </trkpt>
      <trkpt lat="46.01553" lon="3.73277">
        <ele>595</ele>
        <time>2008-10-05T07:15:08Z</time>
      </trkpt>
      <trkpt lat="46.01439" lon="3.73366">
        <ele>584</ele>
        <time>2008-10-05T07:15:08Z</time>
      </trkpt>
      <trkpt lat="46.01424" lon="3.73374">
        <ele>585</ele>
        <time>2008-10-05T07:15:08Z</time>
      </trkpt>
      <trkpt lat="46.01385" lon="3.73424">
        <ele>585</ele>
        <time>2008-10-05T07:15:08Z</time>
      </trkpt>
      <trkpt lat="46.01387" lon="3.73479">
        <ele>585</ele>
        <time>2008-10-05T07:15:08Z</time>
      </trkpt>
      <trkpt lat="46.01408" lon="3.73544">
        <ele>586</ele>
        <time>2008-10-05T07:15:08Z</time>
      </trkpt>
      <trkpt lat="46.01421" lon="3.7359">
        <ele>586</ele>
        <time>2008-10-05T07:15:08Z</time>
      </trkpt>
      <trkpt lat="46.01409" lon="3.7376">
        <ele>597</ele>
        <time>2008-10-05T07:15:08Z</time>
      </trkpt>
      <trkpt lat="46.01385" lon="3.73923">
        <ele>591</ele>
        <time>2008-10-05T07:15:08Z</time>
      </trkpt>
      <trkpt lat="46.01364" lon="3.74065">
        <ele>583</ele>
        <time>2008-10-05T07:15:08Z</time>
      </trkpt>
      <trkpt lat="46.01321" lon="3.74281">
        <ele>566</ele>
        <time>2008-10-05T07:15:08Z</time>
      </trkpt>
      <trkpt lat="46.01337" lon="3.7443">
        <ele>550</ele>
        <time>2008-10-05T07:15:08Z</time>
      </trkpt>
      <trkpt lat="46.01327" lon="3.74533">
        <ele>545</ele>
        <time>2008-10-05T07:15:08Z</time>
      </trkpt>
      <trkpt lat="46.013" lon="3.746">
        <ele>545</ele>
        <time>2008-10-05T07:15:08Z</time>
      </trkpt>
      <trkpt lat="46.01296" lon="3.74641">
        <ele>547</ele>
        <time>2008-10-05T07:15:08Z</time>
      </trkpt>
      <trkpt lat="46.01286" lon="3.74658">
        <ele>551</ele>
        <time>2008-10-05T07:15:08Z</time>
      </trkpt>
      <trkpt lat="46.01271" lon="3.74663">
        <ele>554</ele>
        <time>2008-10-05T07:15:08Z</time>
      </trkpt>
      <trkpt lat="46.01179" lon="3.74673">
        <ele>561</ele>
        <time>2008-10-05T07:15:08Z</time>
      </trkpt>
      <trkpt lat="46.01151" lon="3.74724">
        <ele>567</ele>
        <time>2008-10-05T07:15:08Z</time>
      </trkpt>
      <trkpt lat="46.01145" lon="3.74864">
        <ele>581</ele>
        <time>2008-10-05T07:15:08Z</time>
      </trkpt>
      <trkpt lat="46.01148" lon="3.74997">
        <ele>591</ele>
        <time>2008-10-05T07:15:08Z</time>
      </trkpt>
      <trkpt lat="46.01173" lon="3.75067">
        <ele>604</ele>
        <time>2008-10-05T07:15:08Z</time>
      </trkpt>
      <trkpt lat="46.01182" lon="3.75164">
        <ele>612</ele>
        <time>2008-10-05T07:15:08Z</time>
      </trkpt>
      <trkpt lat="46.01167" lon="3.75272">
        <ele>620</ele>
        <time>2008-10-05T07:15:08Z</time>
      </trkpt>
      <trkpt lat="46.01184" lon="3.75361">
        <ele>627</ele>
        <time>2008-10-05T07:15:08Z</time>
      </trkpt>
      <trkpt lat="46.01179" lon="3.75441">
        <ele>634</ele>
        <time>2008-10-05T07:15:08Z</time>
      </trkpt>
      <trkpt lat="46.01152" lon="3.75501">
        <ele>639</ele>
        <time>2008-10-05T07:15:08Z</time>
      </trkpt>
      <trkpt lat="46.01132" lon="3.7554">
        <ele>642</ele>
        <time>2008-10-05T07:15:08Z</time>
      </trkpt>
      <trkpt lat="46.01111" lon="3.75589">
        <ele>640</ele>
        <time>2008-10-05T07:15:08Z</time>
      </trkpt>
      <trkpt lat="46.01102" lon="3.75703">
        <ele>636</ele>
        <time>2008-10-05T07:15:08Z</time>
      </trkpt>
      <trkpt lat="46.01166" lon="3.759">
        <ele>633</ele>
        <time>2008-10-05T07:15:08Z</time>
      </trkpt>
      <trkpt lat="46.01169" lon="3.75986">
        <ele>636</ele>
        <time>2008-10-05T07:15:08Z</time>
      </trkpt>
      <trkpt lat="46.01147" lon="3.76076">
        <ele>638</ele>
        <time>2008-10-05T07:15:08Z</time>
      </trkpt>
      <trkpt lat="46.01098" lon="3.76155">
        <ele>644</ele>
        <time>2008-10-05T07:15:08Z</time>
      </trkpt>
      <trkpt lat="46.01074" lon="3.76277">
        <ele>650</ele>
        <time>2008-10-05T07:15:08Z</time>
      </trkpt>
      <trkpt lat="46.01036" lon="3.76305">
        <ele>661</ele>
        <time>2008-10-05T07:15:08Z</time>
      </trkpt>
      <trkpt lat="46.00963" lon="3.76496">
        <ele>677</ele>
        <time>2008-10-05T07:15:08Z</time>
      </trkpt>
      <trkpt lat="46.00892" lon="3.76614">
        <ele>693</ele>
        <time>2008-10-05T07:15:08Z</time>
      </trkpt>
      <trkpt lat="46.00776" lon="3.76505">
        <ele>691</ele>
        <time>2008-10-05T07:15:08Z</time>
      </trkpt>
      <trkpt lat="46.00735" lon="3.76451">
        <ele>692</ele>
        <time>2008-10-05T07:15:08Z</time>
      </trkpt>
      <trkpt lat="46.00705" lon="3.76395">
        <ele>692</ele>
        <time>2008-10-05T07:15:08Z</time>
      </trkpt>
      <trkpt lat="46.00628" lon="3.7632">
        <ele>686</ele>
        <time>2008-10-05T07:15:08Z</time>
      </trkpt>
      <trkpt lat="46.00546" lon="3.76108">
        <ele>688</ele>
        <time>2008-10-05T07:15:08Z</time>
      </trkpt>
      <trkpt lat="46.00495" lon="3.76046">
        <ele>688</ele>
        <time>2008-10-05T07:15:08Z</time>
      </trkpt>
      <trkpt lat="46.00413" lon="3.7599">
        <ele>682</ele>
        <time>2008-10-05T07:15:08Z</time>
      </trkpt>
      <trkpt lat="46.00378" lon="3.75992">
        <ele>680</ele>
        <time>2008-10-05T07:15:08Z</time>
      </trkpt>
      <trkpt lat="46.00329" lon="3.76013">
        <ele>679</ele>
        <time>2008-10-05T07:15:08Z</time>
      </trkpt>
      <trkpt lat="46.00205" lon="3.75905">
        <ele>688</ele>
        <time>2008-10-05T07:15:08Z</time>
      </trkpt>
      <trkpt lat="46.00135" lon="3.75855">
        <ele>690</ele>
        <time>2008-10-05T07:15:08Z</time>
      </trkpt>
      <trkpt lat="46.00086" lon="3.75776">
        <ele>697</ele>
        <time>2008-10-05T07:15:08Z</time>
      </trkpt>
      <trkpt lat="46.00025" lon="3.75723">
        <ele>692</ele>
        <time>2008-10-05T07:15:08Z</time>
      </trkpt>
      <trkpt lat="45.9997" lon="3.75725">
        <ele>687</ele>
        <time>2008-10-05T07:15:08Z</time>
      </trkpt>
      <trkpt lat="45.9994" lon="3.75724">
        <ele>682</ele>
        <time>2008-10-05T07:15:08Z</time>
      </trkpt>
      <trkpt lat="45.99775" lon="3.75776">
        <ele>645</ele>
        <time>2008-10-05T07:15:08Z</time>
      </trkpt>
      <trkpt lat="45.99656" lon="3.75784">
        <ele>621</ele>
        <time>2008-10-05T07:15:08Z</time>
      </trkpt>
      <trkpt lat="45.99611" lon="3.75691">
        <ele>624</ele>
        <time>2008-10-05T07:15:08Z</time>
      </trkpt>
      <trkpt lat="45.99583" lon="3.75673">
        <ele>617</ele>
        <time>2008-10-05T07:15:08Z</time>
      </trkpt>
      <trkpt lat="45.99486" lon="3.75627">
        <ele>595</ele>
        <time>2008-10-05T07:15:08Z</time>
      </trkpt>
      <trkpt lat="45.99457" lon="3.75531">
        <ele>587</ele>
        <time>2008-10-05T07:15:08Z</time>
      </trkpt>
      <trkpt lat="45.99466" lon="3.75483">
        <ele>583</ele>
        <time>2008-10-05T07:15:08Z</time>
      </trkpt>
      <trkpt lat="45.99463" lon="3.7546">
        <ele>581</ele>
        <time>2008-10-05T07:15:08Z</time>
      </trkpt>
      <trkpt lat="45.99458" lon="3.75368">
        <ele>576</ele>
        <time>2008-10-05T07:15:08Z</time>
      </trkpt>
      <trkpt lat="45.99486" lon="3.75316">
        <ele>582</ele>
        <time>2008-10-05T07:15:08Z</time>
      </trkpt>
      <trkpt lat="45.99531" lon="3.75287">
        <ele>584</ele>
        <time>2008-10-05T07:15:08Z</time>
      </trkpt>
      <trkpt lat="45.99509" lon="3.75259">
        <ele>592</ele>
        <time>2008-10-05T07:15:08Z</time>
      </trkpt>
      <trkpt lat="45.99476" lon="3.75224">
        <ele>600</ele>
        <time>2008-10-05T07:15:08Z</time>
      </trkpt>
      <trkpt lat="45.99416" lon="3.75125">
        <ele>617</ele>
        <time>2008-10-05T07:15:08Z</time>
      </trkpt>
      <trkpt lat="45.99377" lon="3.75093">
        <ele>626</ele>
        <time>2008-10-05T07:15:08Z</time>
      </trkpt>
      <trkpt lat="45.99259" lon="3.75022">
        <ele>644</ele>
        <time>2008-10-05T07:15:08Z</time>
      </trkpt>
      <trkpt lat="45.99172" lon="3.74973">
        <ele>659</ele>
        <time>2008-10-05T07:15:08Z</time>
      </trkpt>
      <trkpt lat="45.99097" lon="3.74941">
        <ele>667</ele>
        <time>2008-10-05T07:15:08Z</time>
      </trkpt>
      <trkpt lat="45.99006" lon="3.74857">
        <ele>679</ele>
        <time>2008-10-05T07:15:08Z</time>
      </trkpt>
      <trkpt lat="45.98946" lon="3.74692">
        <ele>682</ele>
        <time>2008-10-05T07:15:08Z</time>
      </trkpt>
      <trkpt lat="45.98913" lon="3.74664">
        <ele>686</ele>
        <time>2008-10-05T07:15:08Z</time>
      </trkpt>
      <trkpt lat="45.98677" lon="3.74587">
        <ele>696</ele>
        <time>2008-10-05T07:15:08Z</time>
      </trkpt>
      <trkpt lat="45.98646" lon="3.74579">
        <ele>698</ele>
        <time>2008-10-05T07:15:08Z</time>
      </trkpt>
      <trkpt lat="45.98631" lon="3.74525">
        <ele>696</ele>
        <time>2008-10-05T07:15:08Z</time>
      </trkpt>
      <trkpt lat="45.98634" lon="3.74472">
        <ele>695</ele>
        <time>2008-10-05T07:15:08Z</time>
      </trkpt>
      <trkpt lat="45.98627" lon="3.7442">
        <ele>697</ele>
        <time>2008-10-05T07:15:08Z</time>
      </trkpt>
      <trkpt lat="45.98626" lon="3.74277">
        <ele>691</ele>
        <time>2008-10-05T07:15:08Z</time>
      </trkpt>
      <trkpt lat="45.98634" lon="3.7419">
        <ele>695</ele>
        <time>2008-10-05T07:15:08Z</time>
      </trkpt>
      <trkpt lat="45.98671" lon="3.74175">
        <ele>689</ele>
        <time>2008-10-05T07:15:08Z</time>
      </trkpt>
      <trkpt lat="45.98677" lon="3.74127">
        <ele>693</ele>
        <time>2008-10-05T07:15:08Z</time>
      </trkpt>
      <trkpt lat="45.98675" lon="3.74046">
        <ele>694</ele>
        <time>2008-10-05T07:15:08Z</time>
      </trkpt>
      <trkpt lat="45.98684" lon="3.73992">
        <ele>694</ele>
        <time>2008-10-05T07:15:08Z</time>
      </trkpt>
      <trkpt lat="45.98778" lon="3.73999">
        <ele>687</ele>
        <time>2008-10-05T07:15:08Z</time>
      </trkpt>
      <trkpt lat="45.98844" lon="3.7394">
        <ele>693</ele>
        <time>2008-10-05T07:15:08Z</time>
      </trkpt>
      <trkpt lat="45.98845" lon="3.7394">
        <ele>693</ele>
        <time>2008-10-05T07:15:08Z</time>
      </trkpt>
      <trkpt lat="45.98834" lon="3.739">
        <ele>703</ele>
        <time>2008-10-05T07:15:08Z</time>
      </trkpt>
      <trkpt lat="45.98849" lon="3.73866">
        <ele>708</ele>
        <time>2008-10-05T07:15:08Z</time>
      </trkpt>
      <trkpt lat="45.98896" lon="3.73799">
        <ele>719</ele>
        <time>2008-10-05T07:15:08Z</time>
      </trkpt>
      <trkpt lat="45.98916" lon="3.7372">
        <ele>732</ele>
        <time>2008-10-05T07:15:08Z</time>
      </trkpt>
      <trkpt lat="45.98935" lon="3.73705">
        <ele>733</ele>
        <time>2008-10-05T07:15:08Z</time>
      </trkpt>
      <trkpt lat="45.98943" lon="3.73677">
        <ele>737</ele>
        <time>2008-10-05T07:15:08Z</time>
      </trkpt>
      <trkpt lat="45.98976" lon="3.73608">
        <ele>741</ele>
        <time>2008-10-05T07:15:08Z</time>
      </trkpt>
      <trkpt lat="45.98986" lon="3.73443">
        <ele>754</ele>
        <time>2008-10-05T07:15:08Z</time>
      </trkpt>
      <trkpt lat="45.99021" lon="3.73321">
        <ele>756</ele>
        <time>2008-10-05T07:15:08Z</time>
      </trkpt>
      <trkpt lat="45.99051" lon="3.7322">
        <ele>759</ele>
        <time>2008-10-05T07:15:08Z</time>
      </trkpt>
      <trkpt lat="45.99096" lon="3.73039">
        <ele>767</ele>
        <time>2008-10-05T07:15:08Z</time>
      </trkpt>
      <trkpt lat="45.9909" lon="3.72909">
        <ele>766</ele>
        <time>2008-10-05T07:15:08Z</time>
      </trkpt>
      <trkpt lat="45.99088" lon="3.7282">
        <ele>767</ele>
        <time>2008-10-05T07:15:08Z</time>
      </trkpt>
      <trkpt lat="45.99128" lon="3.72798">
        <ele>774</ele>
        <time>2008-10-05T07:15:08Z</time>
      </trkpt>
      <trkpt lat="45.9916" lon="3.72782">
        <ele>781</ele>
        <time>2008-10-05T07:15:08Z</time>
      </trkpt>
      <trkpt lat="45.99188" lon="3.72697">
        <ele>802</ele>
        <time>2008-10-05T07:15:08Z</time>
      </trkpt>
      <trkpt lat="45.99205" lon="3.72639">
        <ele>810</ele>
        <time>2008-10-05T07:15:08Z</time>
      </trkpt>
      <trkpt lat="45.99214" lon="3.726">
        <ele>815</ele>
        <time>2008-10-05T07:15:08Z</time>
      </trkpt>
      <trkpt lat="45.99229" lon="3.72542">
        <ele>822</ele>
        <time>2008-10-05T07:15:08Z</time>
      </trkpt>
      <trkpt lat="45.99245" lon="3.72477">
        <ele>828</ele>
        <time>2008-10-05T07:15:08Z</time>
      </trkpt>
      <trkpt lat="45.99242" lon="3.72422">
        <ele>836</ele>
        <time>2008-10-05T07:15:08Z</time>
      </trkpt>
      <trkpt lat="45.99244" lon="3.72393">
        <ele>839</ele>
        <time>2008-10-05T07:15:08Z</time>
      </trkpt>
      <trkpt lat="45.99253" lon="3.72364">
        <ele>840</ele>
        <time>2008-10-05T07:15:08Z</time>
      </trkpt>
      <trkpt lat="45.99261" lon="3.72324">
        <ele>841</ele>
        <time>2008-10-05T07:15:08Z</time>
      </trkpt>
      <trkpt lat="45.9927" lon="3.72271">
        <ele>841</ele>
        <time>2008-10-05T07:15:08Z</time>
      </trkpt>
      <trkpt lat="45.99274" lon="3.72177">
        <ele>842</ele>
        <time>2008-10-05T07:15:08Z</time>
      </trkpt>
      <trkpt lat="45.9928" lon="3.72133">
        <ele>840</ele>
        <time>2008-10-05T07:15:08Z</time>
      </trkpt>
      <trkpt lat="45.99314" lon="3.72098">
        <ele>836</ele>
        <time>2008-10-05T07:15:08Z</time>
      </trkpt>
      <trkpt lat="45.99329" lon="3.72043">
        <ele>838</ele>
        <time>2008-10-05T07:15:08Z</time>
      </trkpt>
      <trkpt lat="45.99336" lon="3.71986">
        <ele>840</ele>
        <time>2008-10-05T07:15:08Z</time>
      </trkpt>
      <trkpt lat="45.99335" lon="3.71926">
        <ele>844</ele>
        <time>2008-10-05T07:15:08Z</time>
      </trkpt>
      <trkpt lat="45.99348" lon="3.71842">
        <ele>844</ele>
        <time>2008-10-05T07:15:08Z</time>
      </trkpt>
      <trkpt lat="45.99362" lon="3.71728">
        <ele>847</ele>
        <time>2008-10-05T07:15:08Z</time>
      </trkpt>
      <trkpt lat="45.99377" lon="3.71688">
        <ele>851</ele>
        <time>2008-10-05T07:15:08Z</time>
      </trkpt>
      <trkpt lat="45.9941" lon="3.71673">
        <ele>859</ele>
        <time>2008-10-05T07:15:08Z</time>
      </trkpt>
      <trkpt lat="45.99485" lon="3.71673">
        <ele>863</ele>
        <time>2008-10-05T07:15:08Z</time>
      </trkpt>
      <trkpt lat="45.99528" lon="3.71668">
        <ele>863</ele>
        <time>2008-10-05T07:15:08Z</time>
      </trkpt>
      <trkpt lat="45.99579" lon="3.71649">
        <ele>863</ele>
        <time>2008-10-05T07:15:08Z</time>
      </trkpt>
      <trkpt lat="45.99673" lon="3.71563">
        <ele>878</ele>
        <time>2008-10-05T07:15:08Z</time>
      </trkpt>
      <trkpt lat="45.9971" lon="3.71482">
        <ele>886</ele>
        <time>2008-10-05T07:15:08Z</time>
      </trkpt>
      <trkpt lat="45.99722" lon="3.714">
        <ele>888</ele>
        <time>2008-10-05T07:15:08Z</time>
      </trkpt>
      <trkpt lat="45.99689" lon="3.71341">
        <ele>898</ele>
        <time>2008-10-05T07:15:08Z</time>
      </trkpt>
      <trkpt lat="45.99689" lon="3.71283">
        <ele>899</ele>
        <time>2008-10-05T07:15:08Z</time>
      </trkpt>
      <trkpt lat="45.99722" lon="3.71237">
        <ele>894</ele>
        <time>2008-10-05T07:15:08Z</time>
      </trkpt>
      <trkpt lat="45.99748" lon="3.71201">
        <ele>896</ele>
        <time>2008-10-05T07:15:08Z</time>
      </trkpt>
      <trkpt lat="45.99818" lon="3.71125">
        <ele>904</ele>
        <time>2008-10-05T07:15:08Z</time>
      </trkpt>
      <trkpt lat="45.99928" lon="3.71005">
        <ele>925</ele>
        <time>2008-10-05T07:15:08Z</time>
      </trkpt>
      <trkpt lat="45.99965" lon="3.70978">
        <ele>928</ele>
        <time>2008-10-05T07:15:08Z</time>
      </trkpt>
      <trkpt lat="45.9998" lon="3.70958">
        <ele>930</ele>
        <time>2008-10-05T07:15:08Z</time>
      </trkpt>
      <trkpt lat="46.00001" lon="3.70924">
        <ele>933</ele>
        <time>2008-10-05T07:15:08Z</time>
      </trkpt>
      <trkpt lat="46.00085" lon="3.70855">
        <ele>926</ele>
        <time>2008-10-05T07:15:08Z</time>
      </trkpt>
      <trkpt lat="46.00173" lon="3.70816">
        <ele>915</ele>
        <time>2008-10-05T07:15:08Z</time>
      </trkpt>
      <trkpt lat="46.00278" lon="3.70833">
        <ele>892</ele>
        <time>2008-10-05T07:15:08Z</time>
      </trkpt>
      <trkpt lat="46.00299" lon="3.70788">
        <ele>891</ele>
        <time>2008-10-05T07:15:08Z</time>
      </trkpt>
      <trkpt lat="46.00321" lon="3.70753">
        <ele>889</ele>
        <time>2008-10-05T07:15:08Z</time>
      </trkpt>
      <trkpt lat="46.00374" lon="3.70698">
        <ele>885</ele>
        <time>2008-10-05T07:15:08Z</time>
      </trkpt>
      <trkpt lat="46.00523" lon="3.70679">
        <ele>884</ele>
        <time>2008-10-05T07:15:08Z</time>
      </trkpt>
      <trkpt lat="46.00671" lon="3.70615">
        <ele>885</ele>
        <time>2008-10-05T07:15:08Z</time>
      </trkpt>
      <trkpt lat="46.00729" lon="3.70558">
        <ele>884</ele>
        <time>2008-10-05T07:15:08Z</time>
      </trkpt>
      <trkpt lat="46.00767" lon="3.70542">
        <ele>884</ele>
        <time>2008-10-05T07:15:08Z</time>
      </trkpt>
      <trkpt lat="46.00869" lon="3.70457">
        <ele>882</ele>
        <time>2008-10-05T07:15:08Z</time>
      </trkpt>
      <trkpt lat="46.00969" lon="3.70413">
        <ele>883</ele>
        <time>2008-10-05T07:15:08Z</time>
      </trkpt>
      <trkpt lat="46.0103" lon="3.7039">
        <ele>884</ele>
        <time>2008-10-05T07:15:08Z</time>
      </trkpt>
      <trkpt lat="46.01095" lon="3.70409">
        <ele>883</ele>
        <time>2008-10-05T07:15:08Z</time>
      </trkpt>
      <trkpt lat="46.01195" lon="3.70409">
        <ele>881</ele>
        <time>2008-10-05T07:15:08Z</time>
      </trkpt>
      <trkpt lat="46.0129" lon="3.70375">
        <ele>880</ele>
        <time>2008-10-05T07:15:08Z</time>
      </trkpt>
      <trkpt lat="46.0142" lon="3.70317">
        <ele>869</ele>
        <time>2008-10-05T07:15:08Z</time>
      </trkpt>
      <trkpt lat="46.01498" lon="3.70258">
        <ele>854</ele>
        <time>2008-10-05T07:15:08Z</time>
      </trkpt>
      <trkpt lat="46.01583" lon="3.70281">
        <ele>849</ele>
        <time>2008-10-05T07:15:08Z</time>
      </trkpt>
      <trkpt lat="46.01649" lon="3.70302">
        <ele>849</ele>
        <time>2008-10-05T07:15:08Z</time>
      </trkpt>
      <trkpt lat="46.01695" lon="3.70266">
        <ele>852</ele>
        <time>2008-10-05T07:15:08Z</time>
      </trkpt>
      <trkpt lat="46.0177" lon="3.70132">
        <ele>853</ele>
        <time>2008-10-05T07:15:08Z</time>
      </trkpt>
      <trkpt lat="46.0187" lon="3.7003">
        <ele>849</ele>
        <time>2008-10-05T07:15:08Z</time>
      </trkpt>
      <trkpt lat="46.0193" lon="3.69999">
        <ele>845</ele>
        <time>2008-10-05T07:15:08Z</time>
      </trkpt>
      <trkpt lat="46.02037" lon="3.69977">
        <ele>833</ele>
        <time>2008-10-05T07:15:08Z</time>
      </trkpt>
      <trkpt lat="46.02091" lon="3.69872">
        <ele>834</ele>
        <time>2008-10-05T07:15:08Z</time>
      </trkpt>
      <trkpt lat="46.02215" lon="3.69751">
        <ele>840</ele>
        <time>2008-10-05T07:15:08Z</time>
      </trkpt>
      <trkpt lat="46.02271" lon="3.69712">
        <ele>842</ele>
        <time>2008-10-05T07:15:08Z</time>
      </trkpt>
      <trkpt lat="46.02346" lon="3.69665">
        <ele>845</ele>
        <time>2008-10-05T07:15:08Z</time>
      </trkpt>
      <trkpt lat="46.02438" lon="3.696">
        <ele>851</ele>
        <time>2008-10-05T07:15:08Z</time>
      </trkpt>
      <trkpt lat="46.02529" lon="3.69552">
        <ele>857</ele>
        <time>2008-10-05T07:15:08Z</time>
      </trkpt>
      <trkpt lat="46.02604" lon="3.6948">
        <ele>862</ele>
        <time>2008-10-05T07:15:08Z</time>
      </trkpt>
      <trkpt lat="46.02669" lon="3.69426">
        <ele>864</ele>
        <time>2008-10-05T07:15:08Z</time>
      </trkpt>
      <trkpt lat="46.02798" lon="3.69315">
        <ele>865</ele>
        <time>2008-10-05T07:15:08Z</time>
      </trkpt>
      <trkpt lat="46.02842" lon="3.69319">
        <ele>861</ele>
        <time>2008-10-05T07:15:08Z</time>
      </trkpt>
      <trkpt lat="46.02892" lon="3.69319">
        <ele>855</ele>
        <time>2008-10-05T07:15:08Z</time>
      </trkpt>
      <trkpt lat="46.02979" lon="3.69282">
        <ele>848</ele>
        <time>2008-10-05T07:15:08Z</time>
      </trkpt>
      <trkpt lat="46.03037" lon="3.69251">
        <ele>843</ele>
        <time>2008-10-05T07:15:08Z</time>
      </trkpt>
      <trkpt lat="46.0313" lon="3.69213">
        <ele>830</ele>
        <time>2008-10-05T07:15:08Z</time>
      </trkpt>
      <trkpt lat="46.03168" lon="3.6919">
        <ele>824</ele>
        <time>2008-10-05T07:15:08Z</time>
      </trkpt>
      <trkpt lat="46.03211" lon="3.69169">
        <ele>816</ele>
        <time>2008-10-05T07:15:08Z</time>
      </trkpt>
      <trkpt lat="46.03239" lon="3.69147">
        <ele>811</ele>
        <time>2008-10-05T07:15:08Z</time>
      </trkpt>
      <trkpt lat="46.03239" lon="3.69147">
        <ele>811</ele>
        <time>2008-10-05T07:15:08Z</time>
      </trkpt>
      <trkpt lat="46.03301" lon="3.69142">
        <ele>798</ele>
        <time>2008-10-05T07:15:08Z</time>
      </trkpt>
      <trkpt lat="46.03328" lon="3.69136">
        <ele>793</ele>
        <time>2008-10-05T07:15:08Z</time>
      </trkpt>
      <trkpt lat="46.03354" lon="3.69135">
        <ele>787</ele>
        <time>2008-10-05T07:15:08Z</time>
      </trkpt>
      <trkpt lat="46.0336" lon="3.6914">
        <ele>786</ele>
        <time>2008-10-05T07:15:08Z</time>
      </trkpt>
      <trkpt lat="46.03396" lon="3.69125">
        <ele>781</ele>
        <time>2008-10-05T07:15:08Z</time>
      </trkpt>
      <trkpt lat="46.03422" lon="3.69106">
        <ele>777</ele>
        <time>2008-10-05T07:15:08Z</time>
      </trkpt>
      <trkpt lat="46.03399" lon="3.69034">
        <ele>779</ele>
        <time>2008-10-05T07:15:08Z</time>
      </trkpt>
      <trkpt lat="46.03384" lon="3.68924">
        <ele>776</ele>
        <time>2008-10-05T07:15:08Z</time>
      </trkpt>
      <trkpt lat="46.03386" lon="3.68801">
        <ele>781</ele>
        <time>2008-10-05T07:15:08Z</time>
      </trkpt>
      <trkpt lat="46.03394" lon="3.68692">
        <ele>786</ele>
        <time>2008-10-05T07:15:08Z</time>
      </trkpt>
      <trkpt lat="46.03355" lon="3.68542">
        <ele>798</ele>
        <time>2008-10-05T07:15:08Z</time>
      </trkpt>
      <trkpt lat="46.03316" lon="3.68448">
        <ele>799</ele>
        <time>2008-10-05T07:15:08Z</time>
      </trkpt>
      <trkpt lat="46.03304" lon="3.68318">
        <ele>797</ele>
        <time>2008-10-05T07:15:08Z</time>
      </trkpt>
      <trkpt lat="46.03319" lon="3.68186">
        <ele>796</ele>
        <time>2008-10-05T07:15:08Z</time>
      </trkpt>
      <trkpt lat="46.03396" lon="3.68094">
        <ele>801</ele>
        <time>2008-10-05T07:15:08Z</time>
      </trkpt>
      <trkpt lat="46.03455" lon="3.68044">
        <ele>811</ele>
        <time>2008-10-05T07:15:08Z</time>
      </trkpt>
      <trkpt lat="46.03477" lon="3.67964">
        <ele>816</ele>
        <time>2008-10-05T07:15:08Z</time>
      </trkpt>
      <trkpt lat="46.03462" lon="3.67867">
        <ele>814</ele>
        <time>2008-10-05T07:15:08Z</time>
      </trkpt>
      <trkpt lat="46.03398" lon="3.67726">
        <ele>814</ele>
        <time>2008-10-05T07:15:08Z</time>
      </trkpt>
      <trkpt lat="46.03371" lon="3.6758">
        <ele>807</ele>
        <time>2008-10-05T07:15:08Z</time>
      </trkpt>
      <trkpt lat="46.03341" lon="3.67476">
        <ele>812</ele>
        <time>2008-10-05T07:15:08Z</time>
      </trkpt>
      <trkpt lat="46.03334" lon="3.67276">
        <ele>810</ele>
        <time>2008-10-05T07:15:08Z</time>
      </trkpt>
      <trkpt lat="46.03389" lon="3.67232">
        <ele>804</ele>
        <time>2008-10-05T07:15:08Z</time>
      </trkpt>
      <trkpt lat="46.03469" lon="3.67088">
        <ele>793</ele>
        <time>2008-10-05T07:15:08Z</time>
      </trkpt>
      <trkpt lat="46.03538" lon="3.66993">
        <ele>781</ele>
        <time>2008-10-05T07:15:08Z</time>
      </trkpt>
      <trkpt lat="46.03623" lon="3.66963">
        <ele>758</ele>
        <time>2008-10-05T07:15:08Z</time>
      </trkpt>
      <trkpt lat="46.03678" lon="3.66942">
        <ele>742</ele>
        <time>2008-10-05T07:15:08Z</time>
      </trkpt>
      <trkpt lat="46.03681" lon="3.66845">
        <ele>739</ele>
        <time>2008-10-05T07:15:08Z</time>
      </trkpt>
      <trkpt lat="46.03708" lon="3.6682">
        <ele>729</ele>
        <time>2008-10-05T07:15:08Z</time>
      </trkpt>
      <trkpt lat="46.0376" lon="3.66857">
        <ele>716</ele>
        <time>2008-10-05T07:15:08Z</time>
      </trkpt>
      <trkpt lat="46.03801" lon="3.66938">
        <ele>708</ele>
        <time>2008-10-05T07:15:08Z</time>
      </trkpt>
      <trkpt lat="46.03823" lon="3.67029">
        <ele>704</ele>
        <time>2008-10-05T07:15:08Z</time>
      </trkpt>
      <trkpt lat="46.03895" lon="3.67037">
        <ele>697</ele>
        <time>2008-10-05T07:15:08Z</time>
      </trkpt>
      <trkpt lat="46.03977" lon="3.66962">
        <ele>695</ele>
        <time>2008-10-05T07:15:08Z</time>
      </trkpt>
      <trkpt lat="46.04166" lon="3.66908">
        <ele>696</ele>
        <time>2008-10-05T07:15:08Z</time>
      </trkpt>
      <trkpt lat="46.04261" lon="3.66888">
        <ele>700</ele>
        <time>2008-10-05T07:15:08Z</time>
      </trkpt>
      <trkpt lat="46.04371" lon="3.66868">
        <ele>705</ele>
        <time>2008-10-05T07:15:08Z</time>
      </trkpt>
      <trkpt lat="46.04463" lon="3.66906">
        <ele>705</ele>
        <time>2008-10-05T07:15:08Z</time>
      </trkpt>
      <trkpt lat="46.04546" lon="3.6696">
        <ele>706</ele>
        <time>2008-10-05T07:15:08Z</time>
      </trkpt>
      <trkpt lat="46.04593" lon="3.66983">
        <ele>705</ele>
        <time>2010-04-22T16:01:09Z</time>
      </trkpt>
      <trkpt lat="46.04638" lon="3.66994">
        <ele>704</ele>
        <time>2010-04-22T16:01:09Z</time>
      </trkpt>
      <trkpt lat="46.04691" lon="3.67047">
        <ele>698</ele>
        <time>2010-04-22T16:01:09Z</time>
      </trkpt>
      <trkpt lat="46.04743" lon="3.67048">
        <ele>691</ele>
        <time>2010-04-22T16:01:09Z</time>
      </trkpt>
      <trkpt lat="46.0481" lon="3.67073">
        <ele>670</ele>
        <time>2010-04-22T16:01:09Z</time>
      </trkpt>
      <trkpt lat="46.04905" lon="3.66991">
        <ele>656</ele>
        <time>2010-04-22T16:01:09Z</time>
      </trkpt>
      <trkpt lat="46.04942" lon="3.6696">
        <ele>652</ele>
        <time>2010-04-22T16:01:09Z</time>
      </trkpt>
      <trkpt lat="46.04966" lon="3.66983">
        <ele>648</ele>
        <time>2010-04-22T16:01:09Z</time>
      </trkpt>
      <trkpt lat="46.05023" lon="3.66939">
        <ele>641</ele>
        <time>2010-04-22T16:01:09Z</time>
      </trkpt>
      <trkpt lat="46.05053" lon="3.66901">
        <ele>635</ele>
        <time>2010-04-22T16:01:09Z</time>
      </trkpt>
      <trkpt lat="46.05044" lon="3.66826">
        <ele>634</ele>
        <time>2008-10-05T07:15:08Z</time>
      </trkpt>
      <trkpt lat="46.05007" lon="3.66787">
        <ele>639</ele>
        <time>2008-10-05T07:15:08Z</time>
      </trkpt>
      <trkpt lat="46.05123" lon="3.66664">
        <ele>622</ele>
        <time>2008-10-05T07:15:08Z</time>
      </trkpt>
      <trkpt lat="46.05175" lon="3.66616">
        <ele>617</ele>
        <time>2008-10-05T07:15:08Z</time>
      </trkpt>
      <trkpt lat="46.05249" lon="3.66621">
        <ele>606</ele>
        <time>2010-04-22T16:01:09Z</time>
      </trkpt>
      <trkpt lat="46.05302" lon="3.66774">
        <ele>592</ele>
        <time>2010-04-22T16:01:09Z</time>
      </trkpt>
      <trkpt lat="46.0535" lon="3.66856">
        <ele>581</ele>
        <time>2008-10-05T07:15:08Z</time>
      </trkpt>
      <trkpt lat="46.05452" lon="3.67017">
        <ele>574</ele>
        <time>2008-10-05T07:15:08Z</time>
      </trkpt>
      <trkpt lat="46.0554" lon="3.67132">
        <ele>559</ele>
        <time>2010-04-22T16:01:09Z</time>
      </trkpt>
      <trkpt lat="46.05582" lon="3.6702">
        <ele>559</ele>
        <time>2010-04-22T16:01:09Z</time>
      </trkpt>
      <trkpt lat="46.05609" lon="3.66876">
        <ele>561</ele>
        <time>2010-04-22T16:01:09Z</time>
      </trkpt>
      <trkpt lat="46.05632" lon="3.66808">
        <ele>565</ele>
        <time>2008-10-05T07:15:08Z</time>
      </trkpt>
      <trkpt lat="46.05642" lon="3.66747">
        <ele>567</ele>
        <time>2008-10-05T07:15:08Z</time>
      </trkpt>
      <trkpt lat="46.05633" lon="3.66682">
        <ele>569</ele>
        <time>2008-10-05T07:15:08Z</time>
      </trkpt>
      <trkpt lat="46.05781" lon="3.66553">
        <ele>561</ele>
        <time>2008-10-05T07:15:08Z</time>
      </trkpt>
      <trkpt lat="46.05867" lon="3.66678">
        <ele>555</ele>
        <time>2008-10-05T07:15:08Z</time>
      </trkpt>
      <trkpt lat="46.05939" lon="3.66745">
        <ele>553</ele>
        <time>2008-10-05T07:15:08Z</time>
      </trkpt>
      <trkpt lat="46.06055" lon="3.66786">
        <ele>552</ele>
        <time>2008-10-05T07:15:08Z</time>
      </trkpt>
      <trkpt lat="46.0614" lon="3.66788">
        <ele>548</ele>
        <time>2008-10-05T07:15:08Z</time>
      </trkpt>
      <trkpt lat="46.06242" lon="3.66797">
        <ele>542</ele>
        <time>2008-10-05T07:15:08Z</time>
      </trkpt>
      <trkpt lat="46.06295" lon="3.66841">
        <ele>541</ele>
        <time>2008-10-05T07:15:08Z</time>
      </trkpt>
      <trkpt lat="46.06328" lon="3.66906">
        <ele>543</ele>
        <time>2008-10-05T07:15:08Z</time>
      </trkpt>
      <trkpt lat="46.06322" lon="3.66854">
        <ele>541</ele>
        <time>2008-10-05T07:15:08Z</time>
      </trkpt>
      <trkpt lat="46.06389" lon="3.66691">
        <ele>540</ele>
        <time>2008-10-05T07:15:08Z</time>
      </trkpt>
      <trkpt lat="46.06436" lon="3.66537">
        <ele>543</ele>
        <time>2008-10-05T07:15:08Z</time>
      </trkpt>
      <trkpt lat="46.06467" lon="3.66344">
        <ele>541</ele>
        <time>2008-10-05T07:15:08Z</time>
      </trkpt>
      <trkpt lat="46.06586" lon="3.66221">
        <ele>541</ele>
        <time>2008-10-05T07:15:08Z</time>
      </trkpt>
      <trkpt lat="46.06826" lon="3.6645">
        <ele>540</ele>
        <time>2008-10-05T07:15:08Z</time>
      </trkpt>
      <trkpt lat="46.06919" lon="3.66565">
        <ele>537</ele>
        <time>2008-10-05T07:15:08Z</time>
      </trkpt>
      <trkpt lat="46.06955" lon="3.66588">
        <ele>536</ele>
        <time>2008-10-05T07:15:08Z</time>
      </trkpt>
    </trkseg>
  </trk>
</gpx>